DW7658 Weather Reports


Display with metric or nautical units.
time (UTC)temp
F
wind
direction
speed
MPH
gust
MPH
rain 1hr
in
rain 24hr
in
rain mn
in
humidity
%
barometer
mb
20260504231509 73 50 1.0 8.0 0.00 0.00 0.00 52 1001.4
20260504230051 73 255 0.0 10.0 0.00 0.00 0.00 54 1001.6
20260504224606 73 304 0.0 7.0 0.00 0.00 0.00 54 1001.5
20260504223043 74 308 0.0 8.0 0.00 0.00 0.00 53 1001.7
20260504221538 76 23 0.0 4.0 0.00 0.00 0.00 52 1001.8
20260504220037 76 154 0.0 3.0 0.00 0.00 0.00 52 1001.8
20260504214535 76 238 0.0 4.0 0.00 0.00 0.00 52 1002.1
20260504213053 77 240 0.0 5.0 0.00 0.00 0.00 53 1002.2
20260504211536 78 312 0.0 6.0 0.00 0.00 0.00 52 1002.2
20260504210031 78 232 0.0 2.0 0.00 0.00 0.00 53 1002.3
20260504204530 76 236 0.0 5.0 0.00 0.00 0.00 52 1002.5
20260504203010 76 68 1.0 7.0 0.00 0.00 0.00 52 1002.7
20260504201510 76 269 0.0 6.0 0.00 0.00 0.00 56 1003.0
20260504200049 75 282 1.0 6.0 0.00 0.00 0.00 57 1003.3
20260504194556 74 89 1.0 6.0 0.00 0.00 0.00 58 1003.6
20260504193027 72 110 0.0 6.0 0.00 0.00 0.00 63 1003.8
20260504191527 73 56 2.0 8.0 0.00 0.00 0.00 59 1004.0
20260504190024 71 319 3.0 7.0 0.00 0.00 0.00 61 1003.9
20260504184523 71 294 0.0 6.0 0.00 0.00 0.00 63 1003.9
20260504183024 71 228 1.0 8.0 0.00 0.00 0.00 63 1003.9
20260504181522 71 85 2.0 6.0 0.00 0.00 0.00 60 1004.0
20260504180020 68 165 0.0 8.0 0.00 0.00 0.00 63 1003.9
20260504174519 68 81 2.0 7.0 0.00 0.00 0.00 62 1003.9
20260504173020 67 164 2.0 10.0 0.00 0.00 0.00 65 1003.6
20260504171512 69 264 1.0 7.0 0.00 0.00 0.00 64 1004.0
20260504081550 49 124 0.0 3.0 0.00 0.00 0.00 74 1006.8
20260504044604 49 110 0.0 2.0 0.00 0.00 0.00 74 1008.5
20260504043055 49 74 0.0 1.0 0.00 0.00 0.00 75 1008.7
20260504041535 50 81 0.0 0.0 0.00 0.00 0.00 75 1008.8
20260504040034 50 80 0.0 1.0 0.00 0.00 0.00 76 1009.1
20260504034522 51 62 0.0 0.0 0.00 0.00 0.00 78 1009.1
20260504033018 51 63 0.0 1.0 0.00 0.00 0.00 82 1009.2
20260504031516 49 89 0.0 1.0 0.00 0.00 0.00 90 1009.2
20260504030016 49 219 0.0 0.0 0.00 0.00 0.00 90 1009.4
20260504024519 49 93 0.0 1.0 0.00 0.00 0.00 90 1009.2
20260504023015 49 63 0.0 1.0 0.00 0.00 0.00 90 1009.4
20260504021515 51 63 0.0 1.0 0.00 0.00 0.00 86 1009.2
20260504020015 54 270 0.0 3.0 0.00 0.00 0.00 65 1009.3
20260504014515 55 248 0.0 0.0 0.00 0.00 0.00 54 1009.2
20260504013017 55 304 0.0 1.0 0.00 0.00 0.00 52 1009.2
20260504011513 55 232 0.0 1.0 0.00 0.00 0.00 52 1009.2
20260504010014 56 232 0.0 2.0 0.00 0.00 0.00 51 1009.0
20260504004515 56 231 0.0 2.0 0.00 0.00 0.00 51 1008.9
20260504003012 56 257 0.0 1.0 0.00 0.00 0.00 51 1008.6
20260504001613 57 302 0.0 1.0 0.00 0.00 0.00 49 1008.6
20260504000056 57 27 0.0 2.0 0.00 0.00 0.00 48 1008.7
20260503234552 58 70 0.0 3.0 0.00 0.00 0.00 48 1009.1
20260503233051 58 228 0.0 4.0 0.00 0.00 0.00 48 1009.3